Regional Weather Roundup
Issued by NWS

Home | Current Version | Previous Version | Graphics & Text | Print | Product List | Glossary On
Versions: 1 2 3 4 5 6 7 8 9 10 11 12 13 14 15 16 17 18 19 20 21 22 23 24 25 26 27 28 29 30 31 32 33 34 35 36 37 38 39 40 41 42 43 44 45 46 47 48 49 50
456
ASUS45 KABQ 271401
RWRNM
NEW MEXICO REGIONAL WEATHER ROUNDUP
NATIONAL WEATHER SERVICE ALBUQUERQUE NM
700 AM MST MON FEB 27 2017

NOTE: "FAIR" MEANS FEW OR NO CLOUDS BELOW 12,000 FEET AGL WITH NO
       SIGNIFICANT WEATHER OR OBSTRUCTIONS TO VISION.

      THIS PRODUCT IS RELEASED AS TWO VERSIONS.  ONE VERSION NEAR
      THE TOP OF THE HOUR CONTAINING PRELIMINARY DATA FROM ALBUQUERQUE
      AND OTHER STATIONS.  A FINAL VERSION WITH ADDITIONAL DATA IS
      ISSUED ABOUT 10 MINUTES AFTER THE HOUR.

NMZ501-503-504-510>518-271500-
NORTHWEST PLATEAU/NORTHCENTRAL MOUNTAINS

CITY           SKY/WX    TMP DP  RH WIND       PRES   REMARKS
FARMINGTON     CLOUDY    33  20  58 E9        29.84F WCI  25
LOS ALAMOS     MOCLDY    28  20  72 SE5       29.91R WCI  23
SANTA FE       FAIR      27  20  75 CALM      29.91R
TAOS           CLOUDY    28  10  47 SW6       29.89S WCI  22
ANGEL FIRE     LGT SNOW  25  19  78 SW15      29.86R WCI  12

$$
NMZ402-403-502-505>509-271500-
WESTCENTRAL MOUNTAINS/SOUTHWEST MOUNTAINS

CITY           SKY/WX    TMP DP  RH WIND       PRES   REMARKS
GALLUP         CLOUDY    34  23  64 SW17G25   29.91S WCI  23
GRANTS         FAIR      23  20  89 S5        29.93S WCI  17
SILVER CITY    FAIR      34  25  70 NW12      30.01S WCI  25

$$
NMZ407-409-411-412-271500-
SOUTHERN DESERTS

CITY           SKY/WX    TMP DP  RH WIND       PRES   REMARKS
DEMING         FAIR      32  25  75 W7        30.00R WCI  26
LAS CRUCES     FAIR      32  24  71 CALM      30.01R
HOLLOMAN AFB   FAIR      47  22  36 S10       30.02R
ALAMOGORDO     FAIR      41  19  42 S9        30.00R
T OR C         FAIR      35  23  61 NE5       29.95R WCI  31

$$
NMZ519>523-271500-
CENTRAL VALLEYS/CENTRAL HIGHLANDS

CITY           SKY/WX    TMP DP  RH WIND       PRES   REMARKS
ALBUQUERQUE    FAIR      32  22  66 CALM      29.94R
DOUBLE EAGLE   PTCLDY    25  19  80 VRB5      29.94R WCI  19
MORIARTY ARPT  FAIR      22  19  85 N3        29.93R
CLINES CORNERS FAIR      26  18  71 W16       29.90S WCI  14
BELEN          FAIR      26  21  80 CALM      29.94R
SOCORRO        FAIR      27  22  83 CALM      29.94R

$$
NMZ524>526-539-540-271500-
SOUTHCENTRAL MOUNTAINS

CITY           SKY/WX    TMP DP  RH WIND       PRES   REMARKS
RUIDOSO        NOT AVBL

$$
NMZ527>531-271500-
NORTHEAST HIGHLANDS/NORTHEAST PLAINS

CITY           SKY/WX    TMP DP  RH WIND       PRES   REMARKS
LAS VEGAS      FAIR      32  16  51 SW16      29.83R WCI  21
RATON          FAIR      24   8  50 CALM      29.77R
CLAYTON        FAIR      29  18  63 W10       29.80R WCI  20

$$
NMZ532>537-271500-
EASTCENTRAL PLAINS

CITY           SKY/WX    TMP DP  RH WIND       PRES   REMARKS
TUCUMCARI      FAIR      33  24  69 SW9       29.86S WCI  25
CANNON AFB     CLEAR     34  24  65 NW6       29.90S WCI  29
CLOVIS AIRPORT FAIR      32  21  64 W7        29.90S WCI  26

$$
NMZ028-029-538-271500-
SOUTHEAST PLAINS

CITY           SKY/WX    TMP DP  RH WIND       PRES   REMARKS
ROSWELL        FAIR      28  20  71 W3        29.93
ARTESIA        FAIR      32  23  69 W5        29.94R WCI  27
CARLSBAD       FAIR      38  23  55 SW5       29.93R WCI  34
HOBBS          CLEAR     37  21  52 SW5       29.95R WCI  34


$$




USA.gov is the U.S. government's official web portal to all federal, state and local government web resources and services.